EN

Hourly Weather Al Marfa

Today, 28 January, Thursday

Time Temperature Precipitation Wind Pressure Humidity
00:00 +19°C° 0 mm 4 mps 763 mmHg 82%
01:00 +19°C° 0 mm 3 mps 763 mmHg 82%
02:00 +18°C° 0 mm 3 mps 763 mmHg 82%
03:00 +18°C° 0 mm 3 mps 762 mmHg 82%
04:00 +18°C° 0 mm 3 mps 762 mmHg 82%
05:00 +18°C° 0 mm 3 mps 762 mmHg 83%
06:00 +17°C° 0 mm 2 mps 763 mmHg 84%
07:00 +17°C° 0 mm 2 mps 763 mmHg 84%
08:00 +19°C° 0 mm 2 mps 763 mmHg 77%
09:00 +21°C° 0 mm 2 mps 764 mmHg 69%
10:00 +23°C° 0 mm 2 mps 764 mmHg 61%
11:00 +24°C° 0 mm 2 mps 764 mmHg 54%
12:00 +25°C° 0 mm 3 mps 763 mmHg 47%
13:00 +26°C° 0 mm 3 mps 762 mmHg 40%
14:00 +26°C° 0 mm 3 mps 762 mmHg 40%
15:00 +26°C° 0 mm 4 mps 761 mmHg 40%
16:00 +26°C° 0 mm 4 mps 761 mmHg 39%
17:00 +23°C° 0 mm 4 mps 761 mmHg 49%
18:00 +22°C° 0 mm 4 mps 762 mmHg 60%
19:00 +20°C° 0 mm 3 mps 762 mmHg 70%
20:00 +20°C° 0 mm 3 mps 762 mmHg 72%
21:00 +20°C° 0 mm 3 mps 762 mmHg 74%
22:00 +19°C° 0 mm 3 mps 762 mmHg 76%
23:00 +19°C° 0 mm 3 mps 762 mmHg 76%

Tomorrow, 29 January, Friday

Time Temperature Precipitation Wind Pressure Humidity
00:00 +19°C° 0 mm 2 mps 762 mmHg 76%
01:00 +18°C° 0 mm 2 mps 762 mmHg 75%
02:00 +18°C° 0 mm 2 mps 762 mmHg 71%
03:00 +18°C° 0 mm 2 mps 762 mmHg 66%
04:00 +18°C° 0 mm 2 mps 761 mmHg 61%
05:00 +18°C° 0 mm 2 mps 762 mmHg 57%
06:00 +18°C° 0 mm 3 mps 762 mmHg 53%
07:00 +18°C° 0 mm 3 mps 763 mmHg 49%
08:00 +20°C° 0 mm 3 mps 763 mmHg 43%
09:00 +22°C° 0 mm 4 mps 763 mmHg 38%
10:00 +25°C° 0 mm 5 mps 763 mmHg 33%
11:00 +26°C° 0 mm 4 mps 763 mmHg 29%
12:00 +28°C° 0 mm 4 mps 762 mmHg 26%
13:00 +30°C° 0 mm 4 mps 761 mmHg 23%
14:00 +30°C° 0 mm 3 mps 761 mmHg 22%
15:00 +31°C° 0 mm 3 mps 760 mmHg 21%
16:00 +31°C° 0 mm 3 mps 759 mmHg 21%
17:00 +29°C° 0 mm 3 mps 760 mmHg 24%
18:00 +28°C° 0 mm 3 mps 760 mmHg 27%
19:00 +26°C° 0 mm 2 mps 760 mmHg 30%
20:00 +25°C° 0 mm 3 mps 761 mmHg 31%
21:00 +25°C° 0 mm 3 mps 761 mmHg 33%
22:00 +24°C° 0 mm 3 mps 761 mmHg 35%
23:00 +24°C° 0 mm 3 mps 761 mmHg 36%

Day after tomorrow, 30 January, Saturday

Time Temperature Precipitation Wind Pressure Humidity
00:00 +24°C° 0 mm 3 mps 761 mmHg 37%
01:00 +22°C° 0 mm 4 mps 761 mmHg 38%
02:00 +22°C° 0 mm 4 mps 761 mmHg 38%
03:00 +22°C° 0 mm 4 mps 760 mmHg 39%
04:00 +21°C° 0 mm 4 mps 760 mmHg 39%
05:00 +21°C° 0 mm 4 mps 761 mmHg 39%
06:00 +21°C° 0 mm 4 mps 761 mmHg 39%
07:00 +21°C° 0 mm 4 mps 761 mmHg 38%
08:00 +22°C° 0 mm 5 mps 761 mmHg 35%
09:00 +24°C° 0 mm 6 mps 762 mmHg 32%
10:00 +26°C° 0 mm 6 mps 762 mmHg 29%
11:00 +27°C° 0 mm 6 mps 761 mmHg 26%
12:00 +29°C° 0 mm 6 mps 761 mmHg 24%
13:00 +30°C° 0 mm 5 mps 761 mmHg 22%
14:00 +30°C° 0 mm 5 mps 760 mmHg 23%
15:00 +30°C° 0 mm 5 mps 760 mmHg 23%
16:00 +30°C° 0 mm 4 mps 759 mmHg 24%
17:00 +28°C° 0 mm 4 mps 760 mmHg 35%
18:00 +26°C° 0 mm 4 mps 760 mmHg 45%
19:00 +22°C° 0 mm 4 mps 761 mmHg 56%
20:00 +22°C° 0 mm 4 mps 761 mmHg 56%
21:00 +21°C° 0 mm 3 mps 761 mmHg 57%
22:00 +21°C° 0 mm 3 mps 762 mmHg 57%
23:00 +21°C° 0 mm 4 mps 762 mmHg 67%

31 January, Sunday

Time Temperature Precipitation Wind Pressure Humidity
00:00 +20°C° 0 mm 5 mps 762 mmHg 78%
01:00 +20°C° 0 mm 5 mps 762 mmHg 88%
02:00 +20°C° 0 mm 6 mps 762 mmHg 87%
03:00 +20°C° 0 mm 6 mps 762 mmHg 86%
04:00 +19°C° 0 mm 6 mps 762 mmHg 85%
05:00 +19°C° 0 mm 6 mps 762 mmHg 82%
06:00 +19°C° 0 mm 6 mps 762 mmHg 78%
07:00 +19°C° 0 mm 6 mps 763 mmHg 75%
08:00 +20°C° 0 mm 6 mps 763 mmHg 69%
09:00 +21°C° 0 mm 6 mps 763 mmHg 62%
10:00 +22°C° 0 mm 6 mps 764 mmHg 56%
11:00 +22°C° 0 mm 6 mps 763 mmHg 53%
12:00 +23°C° 0 mm 6 mps 763 mmHg 50%
13:00 +23°C° 0 mm 6 mps 763 mmHg 48%
14:00 +23°C° 0 mm 7 mps 763 mmHg 50%
15:00 +22°C° 0 mm 7 mps 762 mmHg 52%
16:00 +22°C° 0 mm 7 mps 762 mmHg 54%
17:00 +21°C° 0 mm 6 mps 762 mmHg 58%
18:00 +20°C° 0 mm 6 mps 763 mmHg 62%
19:00 +19°C° 0 mm 5 mps 763 mmHg 66%
20:00 +19°C° 0 mm 5 mps 764 mmHg 68%
21:00 +17°C° 0 mm 5 mps 764 mmHg 70%
22:00 +17°C° 0 mm 5 mps 764 mmHg 71%
23:00 +17°C° 0 mm 5 mps 764 mmHg 72%

1 February, Monday

Time Temperature Precipitation Wind Pressure Humidity
00:00 +17°C° 0 mm 5 mps 764 mmHg 73%
01:00 +16°C° 0 mm 6 mps 764 mmHg 75%
02:00 +16°C° 0 mm 6 mps 764 mmHg 75%
03:00 +16°C° 0 mm 6 mps 764 mmHg 75%
04:00 +16°C° 0 mm 6 mps 763 mmHg 75%
05:00 +16°C° 0 mm 6 mps 764 mmHg 75%
06:00 +16°C° 0 mm 5 mps 764 mmHg 75%
07:00 +16°C° 0 mm 5 mps 764 mmHg 76%
08:00 +17°C° 0 mm 6 mps 765 mmHg 69%
09:00 +19°C° 0 mm 6 mps 765 mmHg 63%
10:00 +20°C° 0 mm 6 mps 765 mmHg 56%
11:00 +21°C° 0 mm 7 mps 765 mmHg 53%
12:00 +22°C° 0 mm 7 mps 764 mmHg 50%
13:00 +23°C° 0 mm 7 mps 764 mmHg 47%
14:00 +22°C° 0 mm 7 mps 764 mmHg 49%
15:00 +22°C° 0 mm 7 mps 763 mmHg 50%
16:00 +22°C° 0 mm 7 mps 763 mmHg 52%
17:00 +21°C° 0 mm 7 mps 763 mmHg 56%
18:00 +20°C° 0 mm 6 mps 763 mmHg 60%
19:00 +19°C° 0 mm 6 mps 764 mmHg 65%
20:00 +19°C° 0 mm 6 mps 764 mmHg 66%
21:00 +19°C° 0 mm 6 mps 764 mmHg 67%
22:00 +17°C° 0 mm 6 mps 765 mmHg 69%
23:00 +17°C° 0 mm 5 mps 764 mmHg 70%

2 February, Tuesday

Time Temperature Precipitation Wind Pressure Humidity
00:00 +17°C° 0 mm 5 mps 764 mmHg 72%
01:00 +17°C° 0 mm 5 mps 764 mmHg 74%
02:00 +17°C° 0 mm 5 mps 764 mmHg 74%
03:00 +17°C° 0 mm 5 mps 764 mmHg 75%
04:00 +17°C° 0 mm 5 mps 764 mmHg 76%
05:00 +17°C° 0 mm 5 mps 764 mmHg 77%
06:00 +16°C° 0 mm 5 mps 764 mmHg 78%
07:00 +16°C° 0 mm 5 mps 764 mmHg 78%
08:00 +19°C° 0 mm 5 mps 764 mmHg 71%
09:00 +20°C° 0 mm 5 mps 764 mmHg 64%
10:00 +22°C° 0 mm 5 mps 765 mmHg 57%
11:00 +22°C° 0 mm 5 mps 764 mmHg 54%
12:00 +23°C° 0 mm 6 mps 764 mmHg 50%
13:00 +23°C° 0 mm 6 mps 763 mmHg 47%
14:00 +23°C° 0 mm 6 mps 763 mmHg 48%
15:00 +23°C° 0 mm 6 mps 762 mmHg 50%
16:00 +23°C° 0 mm 5 mps 762 mmHg 52%
17:00 +21°C° 0 mm 5 mps 762 mmHg 60%
18:00 +20°C° 0 mm 4 mps 762 mmHg 68%
19:00 +19°C° 0 mm 3 mps 762 mmHg 76%
20:00 +19°C° 0 mm 3 mps 762 mmHg 78%
21:00 +18°C° 0 mm 3 mps 763 mmHg 81%
22:00 +18°C° 0 mm 2 mps 763 mmHg 84%
23:00 +18°C° 0 mm 2 mps 763 mmHg 84%
Show more